Погода в Красногорском

Россия / Удмуртская Республика     57°42′11″N   52°30′04″E
темп.,
°C
ветер,
м/с
пор.,
м/с
влажн.,
%
обл.,
%
осадки,
мм/ч
давл.,
гПа
погр.,
м
5 марта, пт
пт501:00−6зсз81492100 0.6 988516
04:00−9з71392100 0.6 993488
07:00−14з51197100 0.1 997283
10:00−13зсз599196 0.1 1000365
13:00−9зсз47840 0.0 1000487
16:00−8з478520 0.0 1002686
19:00−12зюз359567 0.0 100385
22:00−11зюз4109580 0.1 1005366
6 марта, сб
сб601:00−14з479898 0.1 1006152
04:00−18зсз349989 0.1 100879
07:00−21зсз349929 0.0 101052
10:00−17зсз359324 0.0 1011254
13:00−13з468794 0.0 1012585
16:00−12з468797 0.1 1011704
19:00−16зюз3396100 0.1 101245
22:00−18зюз339989 0.1 101232
7 марта, вс
вс701:00−19зюз2210087 0.1 101120
04:00−20юз2310086 0.1 101127
07:00−21юз2210092 0.1 101020
10:00−16юз239494 0.1 1009211
13:00−12зюз2384100 0.0 1008569
16:00−11ююз2383100 0.1 1007696
19:00−15ю3394100 0.1 100633
22:00−16ю379796 0.1 1005151
8 марта, пн
пн801:00−15юв5991100 0.0 1002249
04:00−14ююв51095100 0.5 999372
07:00−14юв51094100 0.6 997422
10:00−12юв5993100 1.1 996465
13:00−8ююв4693100 0.8 996529
16:00−5зюз5782100 1.3 9971040
19:00−10ююз349073 0.0 99849
22:00−10ююв239686 0.4 99969
9 марта, вт
вт901:00−11юв2397100 0.3 99872
04:00−13в1198100 0.3 99720
07:00−13с339695 0.4 99959
10:00−11ссз459492 0.4 1002269
13:00−11сз4590100 0.1 1005425
16:00−11сз4691100 0.2 1007587
19:00−14сз3496100 0.1 100986
22:00−16с3496100 0.3 1011123